Time,TemperatureF,DewpointF,PressureIn,WindDirection,WindDirectionDegrees,WindSpeedMPH,WindSpeedGustMPH,Humidity,HourlyPrecipIn,Conditions,Clouds,dailyrainin,SoftwareType,DateUTC
2013-02-11 00:01:00,41.0,39.0,30.35,South,178,0.0,2.0,92,0.00,,,0.00,,2013-02-11 08:01:00,
2013-02-11 00:11:00,41.0,39.0,30.35,South,178,0.0,1.0,92,0.00,,,0.00,,2013-02-11 08:11:00,
2013-02-11 00:21:00,41.0,39.0,30.35,South,178,0.0,1.0,92,0.00,,,0.00,,2013-02-11 08:21:00,
2013-02-11 00:31:00,41.0,39.0,30.35,South,178,0.0,1.0,92,0.00,,,0.00,,2013-02-11 08:31:00,
2013-02-11 00:42:00,41.0,39.0,30.35,South,178,0.0,1.0,92,0.00,,,0.00,,2013-02-11 08:42:00,
2013-02-11 00:52:00,41.0,39.0,30.35,South,178,0.0,1.0,92,0.00,,,0.00,,2013-02-11 08:52:00,
2013-02-11 01:01:00,42.0,40.0,30.35,South,178,0.0,3.0,91,0.00,,,0.00,,2013-02-11 09:01:00,
2013-02-11 01:12:00,42.0,40.0,30.35,South,178,0.0,3.0,91,0.00,,,0.00,,2013-02-11 09:12:00,
2013-02-11 01:21:00,42.0,40.0,30.35,South,178,0.0,2.0,91,0.00,,,0.00,,2013-02-11 09:21:00,
2013-02-11 01:31:00,42.0,40.0,30.35,South,178,0.0,2.0,91,0.00,,,0.00,,2013-02-11 09:31:00,
2013-02-11 01:41:00,42.0,40.0,30.35,South,178,0.0,2.0,91,0.00,,,0.00,,2013-02-11 09:41:00,
2013-02-11 01:51:00,42.0,40.0,30.35,South,178,0.0,2.0,91,0.00,,,0.00,,2013-02-11 09:51:00,
2013-02-11 02:01:00,42.0,40.0,30.35,South,178,0.0,2.0,91,0.00,,,0.00,,2013-02-11 10:01:00,
2013-02-11 02:11:00,42.0,40.0,30.35,South,178,0.0,2.0,91,0.00,,,0.00,,2013-02-11 10:11:00,
2013-02-11 02:21:00,42.0,40.0,30.35,South,178,0.0,2.0,91,0.00,,,0.00,,2013-02-11 10:21:00,
2013-02-11 02:31:00,42.0,40.0,30.35,South,178,0.0,1.0,92,0.00,,,0.00,,2013-02-11 10:31:00,
2013-02-11 02:42:00,42.0,40.0,30.35,South,178,0.0,1.0,92,0.00,,,0.00,,2013-02-11 10:42:00,
2013-02-11 02:52:00,42.0,40.0,30.35,South,178,0.0,1.0,92,0.00,,,0.00,,2013-02-11 10:52:00,
2013-02-11 03:01:00,42.0,40.0,30.35,South,178,1.0,3.0,92,0.00,,,0.00,,2013-02-11 11:01:00,
2013-02-11 03:11:00,42.0,40.0,30.35,South,178,1.0,3.0,92,0.00,,,0.00,,2013-02-11 11:11:00,
2013-02-11 03:21:00,42.0,40.0,30.34,South,178,1.0,3.0,92,0.00,,,0.00,,2013-02-11 11:21:00,
2013-02-11 03:32:00,42.0,40.0,30.34,South,178,1.0,3.0,92,0.00,,,0.00,,2013-02-11 11:32:00,
2013-02-11 03:42:00,43.0,41.0,30.34,South,178,3.0,5.0,93,0.00,,,0.00,,2013-02-11 11:42:00,
2013-02-11 03:52:00,43.0,41.0,30.34,South,178,3.0,5.0,93,0.00,,,0.00,,2013-02-11 11:52:00,
2013-02-11 04:02:00,43.0,41.0,30.34,South,178,2.0,5.0,93,0.00,,,0.00,,2013-02-11 12:02:00,
2013-02-11 04:12:00,43.0,41.0,30.34,South,178,2.0,5.0,93,0.00,,,0.00,,2013-02-11 12:12:00,
2013-02-11 04:22:00,43.0,41.0,30.34,South,178,0.0,2.0,92,0.00,,,0.00,,2013-02-11 12:22:00,
2013-02-11 04:31:00,42.0,40.0,30.33,South,178,0.0,1.0,92,0.00,,,0.00,,2013-02-11 12:31:00,
2013-02-11 04:42:00,42.0,40.0,30.33,South,178,0.0,1.0,92,0.00,,,0.00,,2013-02-11 12:42:00,
2013-02-11 04:52:00,42.0,40.0,30.33,South,178,0.0,1.0,92,0.00,,,0.00,,2013-02-11 12:52:00,
2013-02-11 05:01:00,42.0,40.0,30.33,South,178,0.0,0.0,93,0.00,,,0.00,,2013-02-11 13:01:00,
2013-02-11 05:11:00,42.0,40.0,30.33,South,178,0.0,1.0,93,0.00,,,0.00,,2013-02-11 13:11:00,
2013-02-11 05:21:00,42.0,40.0,30.33,South,178,0.0,1.0,93,0.00,,,0.00,,2013-02-11 13:21:00,
2013-02-11 05:32:00,42.0,40.0,30.34,South,178,0.0,1.0,93,0.00,,,0.00,,2013-02-11 13:32:00,
2013-02-11 05:41:00,42.0,40.0,30.34,South,178,0.0,1.0,93,0.00,,,0.00,,2013-02-11 13:41:00,
2013-02-11 05:51:00,42.0,40.0,30.34,South,178,1.0,3.0,94,0.00,,,0.00,,2013-02-11 13:51:00,
2013-02-11 06:01:00,42.0,40.0,30.34,South,178,0.0,2.0,93,0.00,,,0.00,,2013-02-11 14:01:00,
2013-02-11 06:11:00,42.0,40.0,30.34,South,178,0.0,2.0,93,0.00,,,0.00,,2013-02-11 14:11:00,
2013-02-11 06:21:00,42.0,40.0,30.34,South,178,0.0,2.0,93,0.00,,,0.00,,2013-02-11 14:21:00,
2013-02-11 06:32:00,42.0,40.0,30.34,South,178,0.0,3.0,93,0.00,,,0.00,,2013-02-11 14:32:00,
2013-02-11 06:42:00,42.0,40.0,30.34,South,178,0.0,3.0,93,0.00,,,0.00,,2013-02-11 14:42:00,
2013-02-11 06:52:00,42.0,40.0,30.34,South,178,1.0,4.0,93,0.00,,,0.00,,2013-02-11 14:52:00,
2013-02-11 07:01:00,42.0,40.0,30.33,South,178,1.0,5.0,93,0.00,,,0.00,,2013-02-11 15:01:00,
2013-02-11 07:11:00,42.0,40.0,30.33,South,178,1.0,5.0,93,0.00,,,0.00,,2013-02-11 15:11:00,
2013-02-11 07:22:00,42.0,40.0,30.33,South,184,6.0,9.0,93,0.00,,,0.00,,2013-02-11 15:22:00,
2013-02-11 07:31:00,43.0,41.0,30.33,South,182,6.0,11.0,93,0.00,,,0.00,,2013-02-11 15:31:00,
2013-02-11 07:42:00,43.0,41.0,30.33,South,174,7.0,10.0,92,0.00,,,0.00,,2013-02-11 15:42:00,
2013-02-11 07:51:00,43.0,41.0,30.33,South,174,7.0,10.0,92,0.00,,,0.00,,2013-02-11 15:51:00,
2013-02-11 08:01:00,43.0,41.0,30.33,SSE,153,7.0,10.0,92,0.00,,,0.00,,2013-02-11 16:01:00,
2013-02-11 08:11:00,43.0,41.0,30.33,SSE,153,7.0,10.0,92,0.00,,,0.00,,2013-02-11 16:11:00,
2013-02-11 08:21:00,43.0,41.0,30.34,South,179,7.0,10.0,91,0.00,,,0.00,,2013-02-11 16:21:00,
2013-02-11 08:31:00,43.0,41.0,30.34,South,184,7.0,10.0,91,0.00,,,0.00,,2013-02-11 16:31:00,
2013-02-11 08:42:00,43.0,40.0,30.34,SSW,197,5.0,10.0,90,0.00,,,0.00,,2013-02-11 16:42:00,
2013-02-11 08:52:00,43.0,40.0,30.34,SSW,197,5.0,10.0,90,0.00,,,0.00,,2013-02-11 16:52:00,
2013-02-11 09:01:00,43.0,40.0,30.34,South,180,5.0,10.0,90,0.00,,,0.00,,2013-02-11 17:01:00,
2013-02-11 09:11:00,43.0,40.0,30.34,South,180,5.0,10.0,90,0.00,,,0.00,,2013-02-11 17:11:00,
2013-02-11 09:21:00,43.0,40.0,30.34,South,182,8.0,13.0,90,0.00,,,0.00,,2013-02-11 17:21:00,
2013-02-11 09:32:00,43.0,40.0,30.34,South,182,8.0,13.0,90,0.00,,,0.00,,2013-02-11 17:32:00,
2013-02-11 09:42:00,43.0,40.0,30.34,South,182,8.0,13.0,90,0.00,,,0.00,,2013-02-11 17:42:00,
2013-02-11 09:52:00,43.0,40.0,30.35,SSW,204,5.0,11.0,90,0.00,,,0.00,,2013-02-11 17:52:00,
2013-02-11 10:01:00,43.0,40.0,30.35,South,171,7.0,10.0,90,0.00,,,0.00,,2013-02-11 18:01:00,
2013-02-11 10:11:00,43.0,40.0,30.35,South,171,7.0,10.0,90,0.00,,,0.00,,2013-02-11 18:11:00,
2013-02-11 10:21:00,43.0,41.0,30.35,South,187,7.0,9.0,91,0.00,,,0.00,,2013-02-11 18:21:00,
2013-02-11 10:32:00,42.0,40.0,30.35,South,188,4.0,10.0,92,0.00,,,0.00,,2013-02-11 18:32:00,
2013-02-11 10:42:00,42.0,40.0,30.35,South,188,4.0,10.0,92,0.00,,,0.00,,2013-02-11 18:42:00,
2013-02-11 10:52:00,42.0,40.0,30.35,SSE,162,7.0,9.0,93,0.00,,,0.00,,2013-02-11 18:52:00,
2013-02-11 11:01:00,42.0,40.0,30.35,South,178,5.0,10.0,94,0.00,,,0.00,,2013-02-11 19:01:00,
2013-02-11 11:11:00,42.0,40.0,30.35,SSE,153,7.0,11.0,94,0.00,,,0.00,,2013-02-11 19:11:00,
2013-02-11 11:21:00,42.0,40.0,30.35,SSE,153,7.0,11.0,94,0.00,,,0.00,,2013-02-11 19:21:00,
2013-02-11 11:31:00,42.0,41.0,30.35,SSE,163,6.0,10.0,95,0.01,,,0.01,,2013-02-11 19:31:00,
2013-02-11 11:41:00,42.0,41.0,30.35,SSE,163,6.0,10.0,95,0.01,,,0.01,,2013-02-11 19:41:00,
2013-02-11 11:51:00,42.0,41.0,30.35,South,184,6.0,11.0,95,0.01,,,0.01,,2013-02-11 19:51:00,
2013-02-11 12:01:00,42.0,41.0,30.35,NE,35,7.0,11.0,95,0.01,,,0.01,,2013-02-11 20:01:00,
2013-02-11 12:11:00,42.0,40.0,30.35,South,177,7.0,12.0,94,0.01,,,0.01,,2013-02-11 20:11:00,
2013-02-11 12:21:00,42.0,40.0,30.35,South,177,7.0,12.0,94,0.01,,,0.01,,2013-02-11 20:21:00,
2013-02-11 12:31:00,42.0,40.0,30.35,SSW,199,9.0,13.0,94,0.00,,,0.01,,2013-02-11 20:31:00,
2013-02-11 12:41:00,42.0,40.0,30.35,South,178,7.0,13.0,94,0.00,,,0.01,,2013-02-11 20:41:00,
2013-02-11 12:52:00,42.0,40.0,30.35,South,178,7.0,13.0,94,0.00,,,0.01,,2013-02-11 20:52:00,
2013-02-11 13:02:00,43.0,41.0,30.35,South,173,7.0,11.0,94,0.00,,,0.01,,2013-02-11 21:02:00,
2013-02-11 13:11:00,42.0,40.0,30.35,SSE,166,7.0,13.0,93,0.00,,,0.01,,2013-02-11 21:11:00,
2013-02-11 13:21:00,42.0,40.0,30.35,SSE,166,7.0,13.0,93,0.00,,,0.01,,2013-02-11 21:21:00,
2013-02-11 13:31:00,43.0,41.0,30.35,South,175,8.0,13.0,93,0.00,,,0.01,,2013-02-11 21:31:00,
2013-02-11 13:41:00,43.0,41.0,30.35,South,175,8.0,13.0,93,0.00,,,0.01,,2013-02-11 21:41:00,
2013-02-11 13:51:00,43.0,41.0,30.35,South,176,7.0,11.0,92,0.00,,,0.01,,2013-02-11 21:51:00,
2013-02-11 14:01:00,43.0,41.0,30.35,South,176,6.0,11.0,93,0.00,,,0.01,,2013-02-11 22:01:00,
2013-02-11 14:11:00,43.0,41.0,30.34,South,170,5.0,10.0,93,0.00,,,0.01,,2013-02-11 22:11:00,
2013-02-11 14:21:00,43.0,41.0,30.34,South,170,5.0,10.0,93,0.00,,,0.01,,2013-02-11 22:21:00,
2013-02-11 14:31:00,43.0,41.0,30.34,South,186,5.0,11.0,94,0.00,,,0.01,,2013-02-11 22:31:00,
2013-02-11 14:41:00,43.0,41.0,30.34,South,186,5.0,11.0,94,0.00,,,0.01,,2013-02-11 22:41:00,
2013-02-11 14:51:00,43.0,41.0,30.34,South,173,6.0,11.0,94,0.00,,,0.01,,2013-02-11 22:51:00,
2013-02-11 15:01:00,43.0,41.0,30.34,South,180,6.0,12.0,94,0.00,,,0.01,,2013-02-11 23:01:00,
2013-02-11 15:11:00,43.0,41.0,30.34,South,180,6.0,12.0,94,0.00,,,0.01,,2013-02-11 23:11:00,
2013-02-11 15:21:00,43.0,41.0,30.34,South,191,6.0,10.0,94,0.00,,,0.01,,2013-02-11 23:21:00,
2013-02-11 15:31:00,43.0,41.0,30.35,South,175,4.0,9.0,94,0.00,,,0.01,,2013-02-11 23:31:00,
2013-02-11 15:41:00,43.0,41.0,30.35,South,175,4.0,9.0,94,0.00,,,0.01,,2013-02-11 23:41:00,
2013-02-11 15:52:00,43.0,41.0,30.34,South,182,5.0,9.0,94,0.00,,,0.01,,2013-02-11 23:52:00,
2013-02-11 16:01:00,43.0,41.0,30.35,South,185,5.0,9.0,94,0.00,,,0.01,,2013-02-12 00:01:00,
2013-02-11 16:11:00,43.0,41.0,30.35,South,185,5.0,9.0,94,0.00,,,0.01,,2013-02-12 00:11:00,
2013-02-11 16:21:00,43.0,41.0,30.35,South,171,5.0,10.0,94,0.00,,,0.01,,2013-02-12 00:21:00,
2013-02-11 16:31:00,43.0,41.0,30.35,South,178,5.0,9.0,94,0.00,,,0.01,,2013-02-12 00:31:00,
2013-02-11 16:42:00,43.0,41.0,30.35,South,178,5.0,9.0,94,0.00,,,0.01,,2013-02-12 00:42:00,
2013-02-11 16:51:00,43.0,41.0,30.35,South,180,5.0,9.0,94,0.00,,,0.01,,2013-02-12 00:51:00,
2013-02-11 17:01:00,43.0,41.0,30.35,SSE,167,5.0,9.0,94,0.00,,,0.01,,2013-02-12 01:01:00,
2013-02-11 17:11:00,43.0,41.0,30.35,SSE,167,5.0,9.0,94,0.00,,,0.01,,2013-02-12 01:11:00,
2013-02-11 17:21:00,43.0,41.0,30.35,South,185,5.0,9.0,94,0.00,,,0.01,,2013-02-12 01:21:00,
2013-02-11 17:31:00,43.0,42.0,30.35,South,176,4.0,8.0,95,0.00,,,0.01,,2013-02-12 01:31:00,
2013-02-11 17:41:00,43.0,42.0,30.35,South,176,4.0,8.0,95,0.00,,,0.01,,2013-02-12 01:41:00,
2013-02-11 17:51:00,43.0,42.0,30.35,SSE,157,3.0,6.0,95,0.00,,,0.01,,2013-02-12 01:51:00,
2013-02-11 18:01:00,43.0,42.0,30.35,South,174,3.0,6.0,95,0.00,,,0.01,,2013-02-12 02:01:00,
2013-02-11 18:11:00,43.0,42.0,30.35,South,174,3.0,6.0,95,0.00,,,0.01,,2013-02-12 02:11:00,
2013-02-11 18:21:00,43.0,42.0,30.35,South,169,3.0,6.0,95,0.00,,,0.01,,2013-02-12 02:21:00,
2013-02-11 18:31:00,43.0,42.0,30.35,South,170,3.0,6.0,95,0.00,,,0.01,,2013-02-12 02:31:00,
2013-02-11 18:41:00,43.0,42.0,30.35,South,170,3.0,6.0,95,0.00,,,0.01,,2013-02-12 02:41:00,
2013-02-11 18:52:00,43.0,42.0,30.35,SSE,155,2.0,6.0,95,0.00,,,0.01,,2013-02-12 02:52:00,
2013-02-11 19:02:00,43.0,42.0,30.35,South,179,2.0,5.0,95,0.00,,,0.01,,2013-02-12 03:02:00,
2013-02-11 19:11:00,43.0,42.0,30.35,South,179,2.0,5.0,95,0.00,,,0.01,,2013-02-12 03:11:00,
2013-02-11 19:21:00,43.0,42.0,30.35,South,173,4.0,6.0,95,0.00,,,0.01,,2013-02-12 03:21:00,
2013-02-11 19:31:00,43.0,42.0,30.35,SSE,168,3.0,7.0,95,0.00,,,0.01,,2013-02-12 03:31:00,
2013-02-11 19:41:00,43.0,42.0,30.35,South,182,6.0,7.0,95,0.00,,,0.01,,2013-02-12 03:41:00,
2013-02-11 19:51:00,43.0,42.0,30.35,South,182,6.0,7.0,95,0.00,,,0.01,,2013-02-12 03:51:00,
2013-02-11 20:01:00,43.0,42.0,30.35,South,187,4.0,8.0,95,0.00,,,0.01,,2013-02-12 04:01:00,
2013-02-11 20:11:00,43.0,42.0,30.35,South,187,4.0,8.0,95,0.00,,,0.01,,2013-02-12 04:11:00,
2013-02-11 20:21:00,43.0,42.0,30.35,South,187,4.0,8.0,95,0.00,,,0.01,,2013-02-12 04:21:00,
2013-02-11 20:31:00,43.0,42.0,30.35,SSW,196,2.0,7.0,95,0.00,,,0.01,,2013-02-12 04:31:00,
2013-02-11 20:42:00,43.0,42.0,30.35,SSW,196,2.0,7.0,95,0.00,,,0.01,,2013-02-12 04:42:00,
2013-02-11 20:52:00,43.0,42.0,30.34,South,182,4.0,7.0,95,0.00,,,0.01,,2013-02-12 04:52:00,
2013-02-11 21:01:00,43.0,42.0,30.34,SSE,160,3.0,7.0,95,0.00,,,0.01,,2013-02-12 05:01:00,
2013-02-11 21:11:00,43.0,42.0,30.34,SSE,160,3.0,7.0,95,0.00,,,0.01,,2013-02-12 05:11:00,
2013-02-11 21:21:00,43.0,42.0,30.35,South,177,6.0,10.0,95,0.00,,,0.01,,2013-02-12 05:21:00,
2013-02-11 21:31:00,43.0,42.0,30.35,SSE,168,3.0,8.0,95,0.00,,,0.01,,2013-02-12 05:31:00,
2013-02-11 21:41:00,43.0,42.0,30.35,SSE,168,3.0,8.0,95,0.00,,,0.01,,2013-02-12 05:41:00,
2013-02-11 21:52:00,44.0,43.0,30.35,South,171,4.0,9.0,95,0.00,,,0.01,,2013-02-12 05:52:00,
2013-02-11 22:01:00,44.0,43.0,30.35,South,185,7.0,12.0,95,0.00,,,0.01,,2013-02-12 06:01:00,
2013-02-11 22:12:00,44.0,43.0,30.36,South,185,4.0,9.0,95,0.00,,,0.01,,2013-02-12 06:12:00,
2013-02-11 22:21:00,44.0,43.0,30.36,South,185,4.0,9.0,95,0.00,,,0.01,,2013-02-12 06:21:00,
2013-02-11 22:31:00,44.0,43.0,30.36,South,170,3.0,7.0,95,0.00,,,0.01,,2013-02-12 06:31:00,
2013-02-11 22:42:00,44.0,43.0,30.36,South,169,2.0,6.0,95,0.00,,,0.01,,2013-02-12 06:42:00,
2013-02-11 22:51:00,44.0,43.0,30.36,South,169,2.0,6.0,95,0.00,,,0.01,,2013-02-12 06:51:00,
2013-02-11 23:01:00,44.0,43.0,30.36,South,169,3.0,5.0,95,0.00,,,0.01,,2013-02-12 07:01:00,
2013-02-11 23:11:00,44.0,43.0,30.36,South,169,3.0,5.0,95,0.00,,,0.01,,2013-02-12 07:11:00,
2013-02-11 23:21:00,44.0,43.0,30.35,SSW,198,3.0,5.0,95,0.00,,,0.01,,2013-02-12 07:21:00,
2013-02-11 23:31:00,44.0,43.0,30.35,South,184,4.0,6.0,95,0.00,,,0.01,,2013-02-12 07:31:00,
2013-02-11 23:41:00,44.0,43.0,30.35,South,184,4.0,6.0,95,0.00,,,0.01,,2013-02-12 07:41:00,
2013-02-11 23:51:00,44.0,43.0,30.35,SSW,192,3.0,6.0,95,0.00,,,0.01,,2013-02-12 07:51:00,